Weather History for Cecil Field, FL

Change the Weather History Date:

Tuesday, March 19, 2013

  Actual Average (KJAX) Record (KJAX)
Temperature  
Mean Temperature 66 °F 62 °F  
Max Temperature 78 °F 74 °F 89 °F (1955)
Min Temperature 55 °F 50 °F 29 °F (1892)
Degree Days  
Heating Degree Days 0 5  
Month to date heating degree days 112  
Since 1 July heating degree days 1245  
Cooling Degree Days 2 2  
Month to date cooling degree days 30  
Year to date cooling degree days 59  
Growing Degree Days 16 (Base 50)    
Moisture  
Dew Point 58 °F    
Average Humidity 82    
Maximum Humidity 100    
Minimum Humidity 44    
Precipitation  
Precipitation 0.00 in 0.12 in 1.51 in (1947)
Month to date precipitation 2.53  
Year to date precipitation 9.02  
Snow  
Snow 0.00 in 0.00 in 0.00 in (2002)
Month to date snowfall 0.0  
Since 1 July snowfall T  
Snow Depth -    
Sea Level Pressure  
Sea Level Pressure 29.97 in    
Wind  
Wind Speed 4 mph (WNW)    
Max Wind Speed 15 mph    
Max Gust Speed 39 mph    
Visibility 10 miles    
Events Rain    
T = Trace of Precipitation, MM = Missing Value Source: NWS Daily Summary

Daily Weather History Graph

Daily Weather History Graph

Search for Another Location

Airport:

Trip Planner

Search our weather history database for the weather conditions in past years. The results will help you decide how hot, cold, wet, or windy it might be!

Date:

Astronomy

Mar. 19, 2013 Rise Set
Actual Time 7:32 AM EDT 7:38 PM EDT
Civil Twilight 7:08 AM EDT 8:02 PM EDT
Nautical Twilight 6:40 AM EDT 8:30 PM EDT
Astronomical Twilight 6:12 AM EDT 8:58 PM EDT
Moon 12:44 PM EDT (3/19) 2:01 AM EDT (3/19)
Length of Visible Light 12h 54m
Length of Day
12h 06m
Waxing Crescent, 49% of the Moon is Illuminated
Mar 19
Waxing Crescent
Mar 19
First Quarter
Mar 27
Full
Apr 3
Last Quarter
Apr 10
New

Hourly Weather History & Observations

Time (EDT) Temp. Dew Point Humidity Pressure Visibility Wind Dir Wind Speed Gust Speed Precip Events Conditions
12:15 AM 64.4 °F 62.6 °F 94% 29.96 in 8.0 mi Calm Calm - N/A   Partly Cloudy
12:35 AM 64.4 °F 62.6 °F 94% 29.96 in 9.0 mi Calm Calm - N/A   Clear
12:55 AM 64.4 °F 64.4 °F 100% 29.97 in 10.0 mi West 6.9 mph - N/A   Clear
1:15 AM 64.4 °F 62.6 °F 94% 29.96 in 10.0 mi WSW 3.5 mph - N/A   Partly Cloudy
1:35 AM 66.2 °F 62.6 °F 88% 30.00 in 10.0 mi NW 10.4 mph - N/A   Mostly Cloudy
1:55 AM 66.2 °F 62.6 °F 88% 30.01 in 10.0 mi NW 11.5 mph - N/A   Mostly Cloudy
2:15 AM 66.2 °F 62.6 °F 88% 30.00 in 10.0 mi NW 8.1 mph - N/A   Overcast
2:35 AM 64.4 °F 59.0 °F 83% 30.00 in 10.0 mi North 11.5 mph - N/A   Overcast
2:55 AM 64.4 °F 55.4 °F 73% 30.00 in 10.0 mi NNE 6.9 mph - N/A   Overcast
3:15 AM 64.4 °F 55.4 °F 73% 29.99 in 10.0 mi Calm Calm - N/A   Overcast
3:35 AM 64.4 °F 55.4 °F 73% 29.99 in 10.0 mi Calm Calm - N/A   Overcast
3:55 AM 62.6 °F 55.4 °F 77% 29.97 in 10.0 mi Calm Calm - N/A   Mostly Cloudy
4:15 AM 59.0 °F 55.4 °F 88% 29.96 in 10.0 mi Calm Calm - N/A   Partly Cloudy
4:35 AM 59.0 °F 55.4 °F 88% 29.92 in 10.0 mi ESE 5.8 mph - N/A   Partly Cloudy
4:55 AM 60.8 °F 55.4 °F 82% 29.91 in 10.0 mi Calm Calm - N/A   Scattered Clouds
5:15 AM 59.0 °F 55.4 °F 88% 29.91 in 10.0 mi Calm Calm - N/A   Partly Cloudy
5:35 AM 59.0 °F 55.4 °F 88% 29.90 in 10.0 mi ESE 5.8 mph - N/A   Clear
5:55 AM 59.0 °F 55.4 °F 88% 29.92 in 10.0 mi Calm Calm - N/A   Clear
6:15 AM 57.2 °F 55.4 °F 94% 29.93 in 10.0 mi Calm Calm - N/A   Partly Cloudy
6:35 AM 55.4 °F 55.4 °F 100% 29.96 in 10.0 mi WSW 4.6 mph - N/A   Mostly Cloudy
6:50 AM 57.2 °F 55.4 °F 94% 30.03 in 3.0 mi West 15.0 mph 39.1 mph N/A Rain Rain
7:50 AM 57.2 °F 57.2 °F 100% 29.97 in 6.0 mi South 9.2 mph - N/A   Mostly Cloudy
8:50 AM 59.0 °F 59.0 °F 100% 29.97 in 10.0 mi SSW 5.8 mph - N/A   Scattered Clouds
9:50 AM 64.4 °F 60.8 °F 88% 29.97 in 10.0 mi WNW 4.6 mph - N/A   Scattered Clouds
10:50 AM 68.0 °F 60.8 °F 78% 30.00 in 10.0 mi West 8.1 mph - N/A   Scattered Clouds
11:50 AM 73.4 °F 59.0 °F 61% 30.00 in 10.0 mi West 11.5 mph - N/A   Scattered Clouds
12:50 PM 75.2 °F 59.0 °F 57% 29.99 in 10.0 mi West 8.1 mph - N/A   Clear
1:50 PM 77.0 °F 59.0 °F 54% 29.98 in 10.0 mi WNW 6.9 mph - N/A   Partly Cloudy
2:50 PM 77.0 °F 59.0 °F 54% 29.96 in 10.0 mi WNW 9.2 mph - N/A   Clear
3:50 PM 77.0 °F 59.0 °F 54% 29.94 in 10.0 mi NNW 6.9 mph - N/A   Scattered Clouds
4:50 PM 78.8 °F 59.0 °F 51% 29.93 in 10.0 mi NW 5.8 mph - N/A   Partly Cloudy
5:50 PM 78.8 °F 55.4 °F 44% 29.93 in 10.0 mi NW 9.2 mph - N/A   Partly Cloudy
6:50 PM 75.2 °F 57.2 °F 53% 29.95 in 10.0 mi North 11.5 mph - N/A   Clear
7:50 PM 69.8 °F 57.2 °F 64% 29.95 in 10.0 mi North 5.8 mph - N/A   Clear
8:15 PM 66.2 °F 57.2 °F 73% 29.96 in 10.0 mi Calm Calm - N/A   Clear
8:35 PM 62.6 °F 57.2 °F 82% 29.97 in 10.0 mi Calm Calm - N/A   Clear
8:55 PM 60.8 °F 57.2 °F 88% 29.97 in 10.0 mi Calm Calm - N/A   Clear
9:35 PM 59.0 °F 55.4 °F 88% 29.98 in 10.0 mi Calm Calm - N/A   Clear
9:55 PM 57.2 °F 55.4 °F 94% 29.99 in 10.0 mi Calm Calm - N/A   Partly Cloudy
10:15 PM 57.2 °F 55.4 °F 94% 29.99 in 10.0 mi Calm Calm - N/A   Clear
10:35 PM 57.2 °F 55.4 °F 94% 29.99 in 10.0 mi Calm Calm - N/A   Clear
10:55 PM 57.2 °F 55.4 °F 94% 30.00 in 10.0 mi Calm Calm - N/A   Mostly Cloudy
11:15 PM 57.2 °F 55.4 °F 94% 30.01 in 10.0 mi Calm Calm - N/A   Mostly Cloudy
11:35 PM 57.2 °F 55.4 °F 94% 30.02 in 10.0 mi Calm Calm - N/A   Mostly Cloudy
11:55 PM 57.2 °F 57.2 °F 100% 30.02 in 10.0 mi Calm Calm - N/A   Mostly Cloudy